Voltar ao catálogo

STARLINK-4624

AtivoComunicaçõesSSO
NORAD 53684·PAYLOAD·🇺🇸 United States

Lançado Aug 31, 2022 de Vandenberg Space Force Base

Loading…

Próximas Passagens (próximas 24 horas)

TLE

AtualizadoSource: CelesTrak SupGP

Época: Sep 14, 2026, 13:46 UTC

1 53684C 22105AN  26257.57409722  .00052100  00000+0  36172-2 0  2579
2 53684  97.2820 131.6800 0002439  78.8045 346.2629 15.05631129    11

Acompanhe STARLINK-4624 em tempo real com AllMySat

Download on the App Store